2021/08/31 23:18:55+0000,-39.98,-48.77,-31.28,-49.96,-53.60,-55.34
2021/08/31 23:19:48+0000,-40.12,-47.53,-30.14,-48.24,-53.36,-55.04
2021/08/31 23:20:40+0000,-41.20,-47.68,-31.12,-49.51,-53.41,-54.76
2021/08/31 23:21:40+0000,-40.33,-48.53,-30.90,-49.63,-53.59,-55.54
2021/08/31 23:22:32+0000,-40.29,-48.47,-30.97,-50.57,-53.73,-55.33
2021/08/31 23:23:24+0000,-40.07,-47.86,-31.10,-50.38,-53.73,-55.33
2021/08/31 23:24:16+0000,-40.09,-48.96,-30.58,-50.49,-53.89,-55.07
2021/08/31 23:25:08+0000,-39.63,-49.08,-30.98,-50.42,-53.20,-55.08
2021/08/31 23:26:00+0000,-39.81,-49.14,-31.01,-50.13,-53.39,-54.89
2021/08/31 23:26:52+0000,-40.71,-48.79,-30.56,-49.37,-53.65,-55.16
2021/08/31 23:27:45+0000,-39.57,-49.19,-31.77,-49.80,-53.60,-54.79
2021/08/31 23:28:37+0000,-40.97,-49.55,-31.27,-49.72,-53.70,-55.64
2021/08/31 23:29:29+0000,-40.96,-48.54,-30.84,-50.25,-54.72,-54.63
2021/08/31 23:30:21+0000,-39.90,-48.99,-31.14,-50.39,-53.51,-54.85
2021/08/31 23:31:22+0000,-40.17,-48.14,-30.86,-49.38,-53.58,-55.44
2021/08/31 23:32:14+0000,-40.68,-48.60,-31.60,-50.22,-53.43,-55.07
2021/08/31 23:33:06+0000,-40.30,-46.19,-31.08,-49.65,-53.28,-54.38
2021/08/31 23:33:58+0000,-40.55,-48.96,-31.21,-49.87,-53.87,-55.61
2021/08/31 23:34:50+0000,-41.03,-48.42,-31.45,-50.95,-53.94,-55.47
2021/08/31 23:35:42+0000,-40.60,-47.40,-31.60,-48.20,-53.30,-55.64
2021/08/31 23:36:34+0000,-40.33,-49.35,-31.33,-50.49,-53.67,-54.90
2021/08/31 23:37:26+0000,-40.19,-48.03,-30.91,-48.36,-53.61,-55.46
2021/08/31 23:38:18+0000,-40.83,-49.08,-30.68,-50.44,-53.73,-55.49
2021/08/31 23:39:10+0000,-40.64,-49.09,-30.99,-49.74,-53.65,-54.85
2021/08/31 23:40:02+0000,-40.84,-48.19,-31.51,-49.62,-53.52,-55.66
2021/08/31 23:41:03+0000,-40.97,-48.16,-31.18,-49.99,-53.76,-55.44
2021/08/31 23:41:55+0000,-40.19,-47.88,-30.76,-49.55,-54.05,-56.04
2021/08/31 23:42:47+0000,-40.92,-48.17,-31.49,-49.91,-53.73,-55.27
2021/08/31 23:43:39+0000,-40.97,-49.53,-30.75,-50.45,-53.89,-55.62
2021/08/31 23:44:31+0000,-39.55,-47.45,-31.21,-46.23,-53.95,-55.36
2021/08/31 23:45:23+0000,-39.98,-48.70,-30.62,-49.51,-53.89,-54.65
2021/08/31 23:46:15+0000,-40.79,-49.13,-31.06,-50.17,-53.50,-55.43
2021/08/31 23:47:07+0000,-39.77,-48.63,-31.61,-50.99,-53.68,-55.24
2021/08/31 23:47:59+0000,-40.28,-49.24,-31.33,-50.58,-53.50,-55.07
2021/08/31 23:48:51+0000,-40.11,-48.76,-32.17,-50.32,-53.88,-55.06
2021/08/31 23:49:44+0000,-40.47,-49.15,-31.39,-49.83,-53.45,-54.96
2021/08/31 23:50:36+0000,-40.15,-48.58,-31.17,-51.04,-53.69,-55.36
2021/08/31 23:51:36+0000,-40.77,-48.43,-31.25,-50.45,-53.95,-55.58
2021/08/31 23:52:28+0000,-40.16,-48.27,-31.07,-50.12,-53.44,-55.45
2021/08/31 23:53:20+0000,-39.66,-48.48,-31.42,-50.44,-53.84,-54.59
2021/08/31 23:54:12+0000,-40.88,-48.99,-31.11,-51.10,-53.80,-54.64
2021/08/31 23:55:04+0000,-40.00,-47.92,-31.71,-50.50,-54.00,-54.46
2021/08/31 23:55:56+0000,-40.86,-48.91,-31.21,-50.21,-53.22,-55.68
2021/08/31 23:56:48+0000,-40.06,-48.32,-31.29,-50.43,-53.62,-54.48
2021/08/31 23:57:40+0000,-40.34,-48.36,-31.80,-51.13,-53.26,-54.52
2021/08/31 23:58:32+0000,-39.88,-48.52,-31.42,-50.73,-54.00,-55.23
2021/08/31 23:59:24+0000,-40.29,-48.94,-31.25,-50.48,-53.82,-55.08
2021/09/01 00:00:17+0000,-40.79,-47.87,-31.49,-49.93,-54.13,-54.31
2021/09/01 00:01:19+0000,-39.79,-49.15,-31.13,-50.46,-53.12,-54.76
2021/09/01 00:02:11+0000,-40.21,-49.03,-31.45,-49.68,-53.25,-54.91
2021/09/01 00:03:03+0000,-40.60,-48.86,-31.35,-51.09,-53.60,-55.37
2021/09/01 00:03:55+0000,-40.09,-49.18,-31.12,-50.19,-53.82,-54.74
2021/09/01 00:04:48+0000,-39.62,-48.19,-31.76,-50.44,-53.81,-55.06
2021/09/01 00:05:40+0000,-40.30,-48.91,-31.45,-50.11,-53.15,-54.92
2021/09/01 00:06:32+0000,-39.66,-48.92,-31.93,-49.08,-53.43,-55.21
2021/09/01 00:07:24+0000,-40.47,-49.01,-31.93,-50.21,-53.08,-55.14
2021/09/01 00:08:16+0000,-40.18,-48.88,-32.13,-50.02,-53.57,-54.81
2021/09/01 00:09:08+0000,-40.61,-49.19,-31.53,-50.58,-53.03,-54.77
2021/09/01 00:10:00+0000,-40.43,-49.11,-31.25,-50.45,-53.28,-55.30
2021/09/01 00:10:59+0000,-39.36,-48.04,-30.86,-50.68,-53.76,-55.09
2021/09/01 00:11:51+0000,-39.97,-48.65,-30.87,-49.65,-53.64,-55.22
2021/09/01 00:12:43+0000,-40.51,-47.94,-30.57,-50.08,-54.11,-55.22
2021/09/01 00:13:35+0000,-40.12,-50.09,-31.40,-50.70,-53.22,-55.72
2021/09/01 00:14:27+0000,-40.30,-49.87,-31.15,-50.33,-53.83,-55.53
2021/09/01 00:15:19+0000,-40.19,-50.83,-31.15,-51.02,-53.61,-55.31
2021/09/01 00:16:11+0000,-39.75,-50.45,-31.17,-49.89,-54.35,-55.76
2021/09/01 00:17:03+0000,-41.04,-50.68,-31.16,-50.94,-53.70,-56.03
2021/09/01 00:17:55+0000,-40.09,-50.40,-31.26,-45.41,-53.80,-55.58
2021/09/01 00:18:47+0000,-40.49,-50.06,-31.24,-48.39,-53.76,-55.69
2021/09/01 00:19:39+0000,-40.37,-50.63,-31.27,-49.73,-53.57,-55.63
2021/09/01 00:20:32+0000,-39.93,-49.46,-30.89,-45.72,-54.50,-55.89
2021/09/01 00:21:30+0000,-40.24,-50.87,-31.43,-45.05,-53.34,-55.68
2021/09/01 00:22:22+0000,-40.57,-51.28,-30.91,-45.37,-53.52,-55.31
2021/09/01 00:23:14+0000,-39.92,-50.48,-30.76,-50.67,-53.97,-55.96
2021/09/01 00:24:06+0000,-40.75,-50.64,-31.15,-51.32,-54.24,-56.10
2021/09/01 00:24:58+0000,-40.43,-50.82,-31.76,-50.11,-53.70,-55.67
2021/09/01 00:25:50+0000,-40.16,-50.74,-30.75,-50.89,-53.35,-55.35
2021/09/01 00:26:42+0000,-40.06,-51.28,-31.07,-50.35,-53.11,-55.42
2021/09/01 00:27:35+0000,-40.44,-51.05,-31.26,-51.06,-54.04,-55.35
2021/09/01 00:28:27+0000,-39.60,-51.08,-31.25,-49.75,-53.40,-55.26
2021/09/01 00:29:19+0000,-40.49,-50.75,-30.92,-50.87,-53.52,-55.89
2021/09/01 00:30:11+0000,-40.36,-50.24,-31.52,-50.17,-53.83,-54.99
2021/09/01 00:31:12+0000,-40.76,-50.38,-31.25,-50.33,-54.24,-56.01
2021/09/01 00:32:04+0000,-41.03,-50.82,-30.75,-50.93,-53.70,-55.55
2021/09/01 00:32:57+0000,-41.26,-50.57,-30.91,-50.50,-54.36,-55.80
2021/09/01 00:33:49+0000,-41.22,-50.15,-31.27,-51.40,-53.91,-55.51
2021/09/01 00:34:41+0000,-40.83,-50.10,-31.68,-50.75,-54.70,-55.31
2021/09/01 00:35:33+0000,-41.17,-51.49,-31.52,-50.64,-54.08,-55.14
2021/09/01 00:36:25+0000,-40.47,-50.49,-31.18,-50.03,-53.68,-55.88
2021/09/01 00:37:17+0000,-40.27,-50.84,-31.15,-49.96,-53.95,-55.60
2021/09/01 00:38:09+0000,-40.73,-50.71,-31.02,-51.17,-53.66,-55.71
2021/09/01 00:39:01+0000,-40.23,-49.59,-30.99,-50.24,-54.08,-55.99
2021/09/01 00:39:53+0000,-40.22,-50.47,-31.04,-50.33,-53.77,-55.79
2021/09/01 00:40:45+0000,-40.26,-50.61,-31.01,-50.25,-53.56,-56.07
2021/09/01 00:41:45+0000,-40.03,-50.55,-31.04,-49.88,-54.37,-55.46
2021/09/01 00:42:37+0000,-40.62,-50.64,-30.42,-50.21,-54.67,-56.05
2021/09/01 00:43:29+0000,-39.64,-50.81,-31.14,-51.02,-53.68,-55.62
2021/09/01 00:44:22+0000,-39.78,-50.78,-31.25,-50.64,-53.17,-55.66
2021/09/01 00:45:14+0000,-41.14,-49.84,-31.32,-50.40,-53.80,-55.69
2021/09/01 00:46:06+0000,-40.67,-50.04,-30.96,-50.63,-54.00,-55.74
2021/09/01 00:46:58+0000,-41.41,-50.55,-31.37,-50.42,-52.93,-55.79
2021/09/01 00:47:50+0000,-41.45,-49.89,-31.14,-51.09,-53.46,-55.88
2021/09/01 00:48:42+0000,-41.87,-50.85,-31.43,-50.48,-53.88,-56.07
2021/09/01 00:49:34+0000,-41.37,-50.44,-31.41,-50.94,-53.66,-55.64
2021/09/01 00:50:26+0000,-41.87,-50.59,-31.07,-50.57,-53.67,-55.78
2021/09/01 00:51:27+0000,-41.37,-50.65,-31.45,-50.34,-53.88,-55.49
2021/09/01 00:52:19+0000,-41.83,-50.57,-31.10,-51.19,-53.77,-55.24
2021/09/01 00:53:11+0000,-40.60,-50.36,-31.39,-50.36,-53.20,-55.58
2021/09/01 00:54:03+0000,-41.32,-50.68,-31.30,-49.99,-53.56,-55.80
2021/09/01 00:54:55+0000,-41.55,-50.56,-31.50,-49.58,-53.50,-55.88
2021/09/01 00:55:47+0000,-41.65,-49.90,-31.00,-49.91,-53.54,-56.13
2021/09/01 00:56:39+0000,-41.40,-50.12,-31.54,-50.66,-53.75,-55.53
2021/09/01 00:57:31+0000,-41.39,-50.08,-31.61,-49.88,-53.45,-55.68
2021/09/01 00:58:23+0000,-41.36,-50.22,-31.30,-50.30,-54.10,-55.50
2021/09/01 00:59:15+0000,-41.34,-49.69,-31.00,-50.61,-53.38,-56.15
2021/09/01 01:00:07+0000,-41.49,-50.55,-31.67,-50.34,-53.56,-55.67
2021/09/01 01:01:08+0000,-41.56,-50.06,-30.88,-49.96,-53.04,-56.06
2021/09/01 01:02:00+0000,-41.49,-50.22,-31.47,-49.66,-53.87,-55.92
2021/09/01 01:02:52+0000,-41.95,-50.89,-31.29,-50.74,-53.43,-55.66
2021/09/01 01:03:44+0000,-40.71,-49.78,-31.00,-50.26,-53.62,-55.31
2021/09/01 01:04:36+0000,-41.34,-51.49,-31.44,-50.00,-53.24,-56.23
2021/09/01 01:05:29+0000,-40.62,-49.89,-31.51,-49.83,-53.56,-55.36
2021/09/01 01:06:21+0000,-41.31,-50.32,-31.11,-50.17,-53.14,-56.02
2021/09/01 01:07:13+0000,-41.54,-49.97,-32.01,-50.49,-52.86,-55.83
2021/09/01 01:08:05+0000,-41.49,-50.98,-31.11,-51.33,-52.57,-55.93
2021/09/01 01:08:57+0000,-41.02,-49.77,-31.35,-50.76,-52.43,-55.75
2021/09/01 01:09:49+0000,-41.20,-50.00,-31.15,-50.78,-53.28,-55.93
2021/09/01 01:10:41+0000,-41.33,-49.60,-30.89,-50.94,-53.01,-55.68
2021/09/01 01:11:42+0000,-40.90,-50.51,-31.76,-50.05,-53.69,-55.75
2021/09/01 01:12:34+0000,-40.77,-49.68,-31.77,-50.73,-53.32,-55.27
2021/09/01 01:13:26+0000,-41.35,-50.02,-31.65,-50.48,-53.30,-56.08
2021/09/01 01:14:18+0000,-41.85,-49.19,-31.33,-51.48,-53.86,-55.67
2021/09/01 01:15:10+0000,-41.25,-50.08,-31.34,-49.47,-53.80,-56.02
2021/09/01 01:16:02+0000,-40.61,-48.99,-31.52,-50.08,-53.28,-56.05
2021/09/01 01:16:54+0000,-40.44,-49.76,-30.98,-50.68,-53.34,-55.55
2021/09/01 01:17:46+0000,-40.84,-50.04,-31.22,-50.28,-53.43,-55.50
2021/09/01 01:18:38+0000,-40.14,-49.13,-31.39,-49.82,-53.48,-55.42
2021/09/01 01:19:30+0000,-39.27,-50.39,-30.95,-49.83,-53.38,-55.21
2021/09/01 01:20:22+0000,-40.28,-50.50,-31.72,-50.00,-52.92,-55.70
2021/09/01 01:21:23+0000,-40.47,-50.33,-31.67,-49.52,-54.28,-56.30
2021/09/01 01:22:15+0000,-40.26,-49.30,-31.84,-50.42,-53.58,-56.04
2021/09/01 01:23:07+0000,-41.11,-50.31,-31.09,-50.17,-53.18,-55.32
2021/09/01 01:23:59+0000,-41.05,-50.28,-31.85,-49.11,-53.34,-55.59
2021/09/01 01:24:51+0000,-40.37,-51.35,-31.84,-49.50,-53.26,-55.22
2021/09/01 01:25:43+0000,-39.98,-50.62,-31.77,-47.62,-53.02,-55.65
2021/09/01 01:26:35+0000,-40.81,-48.91,-31.08,-51.18,-53.28,-55.61
2021/09/01 01:27:27+0000,-41.26,-49.57,-31.88,-49.14,-53.31,-55.45
2021/09/01 01:28:19+0000,-40.72,-49.33,-32.04,-50.80,-53.39,-55.34
2021/09/01 01:29:11+0000,-40.30,-49.65,-31.07,-49.99,-53.09,-55.65
2021/09/01 01:30:03+0000,-40.70,-50.02,-30.92,-50.58,-53.90,-55.58
2021/09/01 01:31:04+0000,-41.51,-49.76,-30.89,-50.59,-53.76,-56.04
2021/09/01 01:31:56+0000,-40.85,-50.64,-31.16,-49.94,-53.62,-55.45
2021/09/01 01:32:48+0000,-40.18,-48.76,-31.04,-49.98,-53.49,-55.42
2021/09/01 01:33:40+0000,-37.88,-47.77,-31.00,-45.39,-53.70,-55.63
2021/09/01 01:34:32+0000,-39.10,-49.89,-30.60,-50.31,-54.54,-55.29
2021/09/01 01:35:24+0000,-40.78,-49.19,-30.86,-49.63,-54.07,-56.03
2021/09/01 01:36:16+0000,-39.83,-48.04,-31.30,-49.52,-53.73,-55.25
2021/09/01 01:37:08+0000,-37.66,-49.29,-31.31,-49.77,-53.81,-55.49
2021/09/01 01:38:00+0000,-39.88,-49.31,-31.63,-49.24,-53.88,-55.72
2021/09/01 01:38:52+0000,-40.71,-51.11,-31.33,-49.12,-53.54,-55.71
2021/09/01 01:39:45+0000,-40.59,-48.70,-32.02,-46.13,-53.59,-55.47
2021/09/01 01:40:37+0000,-40.39,-49.90,-31.44,-46.37,-53.52,-55.15
2021/09/01 01:41:37+0000,-40.03,-50.49,-31.63,-46.54,-53.66,-55.91
2021/09/01 01:42:29+0000,-41.09,-48.78,-31.51,-48.56,-53.73,-55.60
2021/09/01 01:43:21+0000,-41.10,-50.42,-30.83,-50.81,-53.80,-55.90
2021/09/01 01:44:13+0000,-40.36,-48.82,-30.79,-47.15,-53.54,-55.99
2021/09/01 01:45:05+0000,-40.09,-48.39,-31.29,-50.51,-53.40,-55.22
2021/09/01 01:45:57+0000,-40.31,-49.22,-30.11,-49.74,-53.96,-55.36
2021/09/01 01:46:49+0000,-40.50,-48.83,-30.75,-50.34,-53.77,-55.63
2021/09/01 01:47:41+0000,-40.23,-48.65,-30.20,-45.25,-53.04,-55.76
2021/09/01 01:48:33+0000,-40.01,-48.02,-30.65,-49.81,-53.83,-55.86
2021/09/01 01:49:25+0000,-40.17,-48.80,-30.75,-49.22,-53.61,-55.83
2021/09/01 01:50:18+0000,-40.14,-47.77,-30.72,-48.23,-53.66,-55.67
2021/09/01 01:51:18+0000,-39.46,-48.97,-30.84,-44.58,-53.84,-55.55
2021/09/01 01:52:10+0000,-40.29,-48.84,-30.97,-45.06,-53.69,-56.12
2021/09/01 01:53:02+0000,-40.74,-48.73,-31.13,-50.13,-53.17,-56.05
2021/09/01 01:53:54+0000,-40.40,-47.89,-31.19,-40.37,-53.54,-55.38
2021/09/01 01:54:46+0000,-39.91,-48.72,-31.55,-49.77,-53.54,-55.64
2021/09/01 01:55:38+0000,-40.75,-50.27,-31.08,-48.25,-53.06,-55.75
2021/09/01 01:56:30+0000,-40.85,-47.24,-31.43,-51.08,-53.15,-55.43
2021/09/01 01:57:22+0000,-40.59,-50.62,-31.39,-50.79,-52.68,-55.54
2021/09/01 01:58:14+0000,-39.68,-48.58,-31.38,-47.54,-53.75,-55.85
2021/09/01 01:59:06+0000,-40.14,-47.41,-31.17,-50.27,-53.17,-55.62
2021/09/01 01:59:58+0000,-40.17,-47.78,-30.88,-49.93,-53.38,-55.19
2021/09/01 02:00:51+0000,-40.44,-46.58,-30.74,-49.93,-53.68,-55.18
2021/09/01 02:01:51+0000,-39.85,-48.80,-31.32,-49.20,-53.12,-55.39
2021/09/01 02:02:43+0000,-40.29,-47.90,-30.85,-48.91,-52.76,-55.43
2021/09/01 02:03:35+0000,-39.67,-48.27,-30.91,-49.97,-53.00,-55.44
2021/09/01 02:04:27+0000,-39.91,-47.36,-30.55,-49.87,-53.02,-54.98
2021/09/01 02:05:19+0000,-39.75,-47.75,-30.57,-49.97,-53.51,-55.71
2021/09/01 02:06:11+0000,-38.25,-48.49,-31.04,-49.23,-52.55,-55.92
2021/09/01 02:07:03+0000,-38.56,-47.07,-30.79,-50.09,-53.07,-55.16
2021/09/01 02:07:56+0000,-39.41,-47.47,-30.71,-49.35,-53.05,-55.23
2021/09/01 02:08:48+0000,-39.60,-48.38,-30.84,-50.85,-53.50,-55.60
2021/09/01 02:09:40+0000,-39.73,-47.78,-30.73,-49.59,-53.48,-55.18
2021/09/01 02:10:32+0000,-39.64,-46.90,-30.90,-48.39,-52.44,-55.82
2021/09/01 02:11:32+0000,-38.25,-47.49,-31.05,-48.63,-52.96,-55.53
2021/09/01 02:12:24+0000,-39.06,-48.05,-31.23,-49.56,-53.37,-55.59
2021/09/01 02:13:16+0000,-39.38,-46.39,-30.76,-49.86,-53.06,-55.65
2021/09/01 02:14:08+0000,-39.93,-47.03,-31.11,-49.09,-52.69,-55.52
2021/09/01 02:15:00+0000,-39.21,-47.22,-30.98,-50.11,-52.92,-55.49
2021/09/01 02:15:52+0000,-39.40,-49.34,-30.95,-49.94,-53.05,-55.28
2021/09/01 02:16:44+0000,-39.83,-47.89,-30.22,-49.58,-53.11,-56.06
2021/09/01 02:17:36+0000,-39.41,-50.06,-30.08,-49.43,-52.84,-56.12
2021/09/01 02:18:28+0000,-39.37,-48.61,-31.15,-49.93,-53.43,-55.50
2021/09/01 02:19:20+0000,-39.64,-49.33,-31.49,-49.49,-54.00,-55.32
2021/09/01 02:20:12+0000,-39.16,-47.90,-31.53,-48.94,-53.88,-55.97
2021/09/01 02:21:14+0000,-39.12,-47.76,-31.08,-49.18,-53.35,-55.76
2021/09/01 02:22:06+0000,-39.26,-49.00,-31.28,-48.72,-53.11,-55.54
2021/09/01 02:22:58+0000,-39.03,-48.24,-30.86,-50.22,-53.83,-55.76
2021/09/01 02:23:50+0000,-39.61,-48.08,-30.47,-50.07,-53.28,-55.76
2021/09/01 02:24:42+0000,-39.06,-46.43,-30.44,-49.25,-53.47,-55.84
2021/09/01 02:25:34+0000,-40.29,-47.07,-30.64,-50.23,-53.39,-55.39
2021/09/01 02:26:26+0000,-39.61,-47.43,-30.72,-50.41,-53.72,-55.94
2021/09/01 02:27:18+0000,-39.15,-47.75,-31.09,-50.09,-53.74,-55.91
2021/09/01 02:28:10+0000,-36.92,-46.94,-30.90,-49.55,-53.88,-55.40
2021/09/01 02:29:02+0000,-39.03,-46.67,-31.70,-50.38,-53.81,-55.73
2021/09/01 02:29:54+0000,-39.34,-46.88,-30.98,-49.92,-54.24,-55.79
2021/09/01 02:30:46+0000,-39.88,-47.96,-31.00,-50.10,-53.63,-55.24
2021/09/01 02:31:48+0000,-40.07,-46.64,-30.87,-49.31,-54.07,-55.68
2021/09/01 02:32:40+0000,-39.27,-46.86,-31.75,-50.17,-54.01,-56.02
2021/09/01 02:33:32+0000,-39.47,-46.50,-31.14,-49.57,-53.80,-55.50
2021/09/01 02:34:24+0000,-39.59,-46.87,-31.51,-49.86,-54.48,-55.97
2021/09/01 02:35:16+0000,-38.63,-46.70,-30.98,-50.05,-53.90,-55.76
2021/09/01 02:36:08+0000,-39.13,-48.45,-30.91,-49.54,-53.69,-55.34
2021/09/01 02:37:00+0000,-38.90,-46.56,-30.95,-49.80,-54.06,-55.90
2021/09/01 02:37:52+0000,-39.54,-48.74,-30.91,-49.87,-53.65,-55.82
2021/09/01 02:38:44+0000,-39.37,-46.49,-30.99,-49.32,-53.82,-55.77
2021/09/01 02:39:36+0000,-38.76,-49.44,-30.88,-48.81,-53.20,-55.79
2021/09/01 02:40:28+0000,-38.32,-46.15,-30.73,-49.51,-53.39,-56.14
2021/09/01 02:41:29+0000,-39.58,-46.86,-31.23,-49.12,-54.03,-55.75
2021/09/01 02:42:21+0000,-37.44,-47.35,-31.82,-50.20,-53.68,-56.17
2021/09/01 02:43:13+0000,-38.56,-48.27,-30.96,-48.97,-53.43,-55.46
2021/09/01 02:44:05+0000,-38.12,-47.38,-31.07,-49.59,-53.33,-54.92
2021/09/01 02:44:57+0000,-38.64,-46.85,-30.91,-49.53,-53.58,-54.49
2021/09/01 02:45:49+0000,-38.53,-46.77,-31.15,-50.82,-53.00,-54.61
2021/09/01 02:46:41+0000,-38.30,-48.31,-30.74,-49.76,-52.90,-54.91
2021/09/01 02:47:33+0000,-38.13,-48.17,-31.62,-49.03,-52.88,-54.45
2021/09/01 02:48:25+0000,-38.88,-48.49,-31.16,-48.79,-53.01,-53.85
2021/09/01 02:49:17+0000,-39.55,-47.73,-30.33,-49.48,-53.03,-54.88
2021/09/01 02:50:09+0000,-39.21,-47.46,-30.98,-48.90,-53.10,-54.94
2021/09/01 02:51:10+0000,-38.87,-48.17,-30.88,-48.80,-53.75,-54.69
2021/09/01 02:52:02+0000,-39.11,-47.65,-30.84,-49.72,-53.11,-54.84
2021/09/01 02:52:54+0000,-38.04,-48.44,-30.74,-48.67,-53.23,-54.09
2021/09/01 02:53:46+0000,-39.41,-48.32,-30.32,-48.70,-53.37,-54.06
2021/09/01 02:54:38+0000,-39.17,-49.70,-31.64,-47.89,-53.48,-54.52
2021/09/01 02:55:30+0000,-39.48,-47.92,-31.33,-50.18,-53.41,-54.69
2021/09/01 02:56:22+0000,-39.37,-50.95,-31.38,-50.46,-53.68,-54.41
2021/09/01 02:57:14+0000,-35.80,-47.47,-30.72,-48.24,-52.78,-54.38
2021/09/01 02:58:06+0000,-37.57,-48.72,-30.73,-49.68,-53.05,-55.14
2021/09/01 02:58:58+0000,-38.03,-47.45,-31.31,-49.92,-52.92,-54.42
2021/09/01 02:59:50+0000,-37.64,-43.59,-30.90,-49.78,-52.75,-54.32
2021/09/01 03:00:42+0000,-38.99,-44.81,-31.10,-49.44,-52.49,-54.01
2021/09/01 03:01:41+0000,-39.45,-45.72,-31.13,-49.18,-53.26,-54.44
2021/09/01 03:02:33+0000,-37.55,-49.35,-31.32,-50.57,-52.65,-55.05
2021/09/01 03:03:25+0000,-39.01,-46.98,-30.85,-50.42,-52.85,-54.82
2021/09/01 03:04:17+0000,-39.48,-46.41,-31.25,-49.50,-53.39,-54.36
2021/09/01 03:05:09+0000,-40.23,-47.77,-29.03,-49.16,-53.23,-54.63
2021/09/01 03:06:01+0000,-40.09,-48.79,-28.56,-50.22,-53.07,-55.19
2021/09/01 03:06:53+0000,-39.11,-49.11,-31.18,-49.94,-53.69,-54.48
2021/09/01 03:07:45+0000,-39.54,-47.76,-31.25,-49.08,-53.05,-54.15
2021/09/01 03:08:37+0000,-39.25,-48.11,-30.61,-48.64,-52.28,-54.35
2021/09/01 03:09:29+0000,-39.75,-45.76,-29.48,-50.02,-53.18,-55.04
2021/09/01 03:10:22+0000,-39.66,-50.33,-31.81,-49.81,-53.35,-54.62
2021/09/01 03:11:27+0000,-39.46,-48.58,-31.51,-50.93,-53.38,-54.77
2021/09/01 03:12:19+0000,-39.95,-47.01,-31.28,-50.20,-53.85,-54.78
2021/09/01 03:13:11+0000,-39.08,-46.83,-31.04,-49.23,-53.10,-54.76
2021/09/01 03:14:03+0000,-38.13,-48.46,-30.18,-50.51,-52.93,-54.38
2021/09/01 03:14:55+0000,-38.58,-48.85,-31.06,-50.34,-53.14,-54.28
2021/09/01 03:15:47+0000,-38.37,-46.89,-31.32,-49.16,-52.74,-54.76
2021/09/01 03:16:39+0000,-38.75,-44.62,-31.61,-48.89,-53.05,-54.51
2021/09/01 03:17:31+0000,-38.08,-47.56,-31.45,-49.20,-52.86,-54.43
2021/09/01 03:18:23+0000,-38.69,-48.97,-31.92,-50.14,-53.31,-53.93
2021/09/01 03:19:15+0000,-39.22,-47.11,-30.67,-50.01,-53.17,-54.26
2021/09/01 03:20:07+0000,-38.28,-48.25,-31.37,-49.67,-53.80,-53.99
2021/09/01 03:21:08+0000,-39.31,-43.51,-31.16,-49.81,-52.84,-54.51
2021/09/01 03:22:00+0000,-38.00,-47.55,-31.87,-49.47,-52.89,-54.42
2021/09/01 03:22:52+0000,-38.41,-48.93,-30.52,-50.29,-53.02,-53.94
2021/09/01 03:23:44+0000,-35.92,-47.79,-30.89,-49.53,-53.07,-53.85
2021/09/01 03:24:36+0000,-33.52,-49.45,-31.66,-50.05,-52.65,-54.10
2021/09/01 03:25:28+0000,-37.89,-46.19,-31.54,-50.18,-52.75,-54.03
2021/09/01 03:26:20+0000,-38.26,-49.96,-31.14,-49.83,-53.48,-54.40
2021/09/01 03:27:12+0000,-37.99,-45.43,-31.23,-50.00,-53.09,-54.58
2021/09/01 03:28:04+0000,-38.39,-45.16,-31.80,-50.34,-52.54,-54.71
2021/09/01 03:28:56+0000,-37.01,-47.43,-31.53,-50.66,-53.65,-54.59
2021/09/01 03:29:48+0000,-37.51,-47.59,-31.35,-50.27,-53.18,-54.61
2021/09/01 03:30:40+0000,-39.02,-47.60,-31.06,-49.40,-53.55,-54.80
2021/09/01 03:31:43+0000,-31.10,-48.59,-31.79,-49.99,-53.21,-54.46
2021/09/01 03:32:35+0000,-38.95,-49.53,-31.52,-49.12,-53.20,-54.01
2021/09/01 03:33:27+0000,-38.75,-46.83,-31.56,-50.05,-53.15,-54.58
2021/09/01 03:34:19+0000,-38.23,-46.42,-31.95,-49.60,-53.22,-54.85
2021/09/01 03:35:11+0000,-37.70,-46.27,-32.44,-49.54,-53.49,-54.57
2021/09/01 03:36:03+0000,-39.07,-45.63,-32.21,-49.69,-53.62,-54.58
2021/09/01 03:36:55+0000,-38.52,-44.74,-31.70,-49.91,-53.27,-54.34
2021/09/01 03:37:47+0000,-39.37,-45.11,-31.11,-49.84,-53.22,-54.86
2021/09/01 03:38:40+0000,-38.84,-45.77,-31.72,-50.20,-53.27,-54.96
2021/09/01 03:39:32+0000,-39.20,-44.16,-31.50,-50.01,-53.69,-54.90
2021/09/01 03:40:24+0000,-39.44,-45.68,-31.83,-50.26,-53.65,-54.51
2021/09/01 03:41:26+0000,-39.23,-44.63,-31.04,-50.42,-54.27,-54.87
2021/09/01 03:42:18+0000,-38.26,-47.71,-30.85,-50.76,-54.17,-54.56
2021/09/01 03:43:10+0000,-38.31,-47.39,-31.34,-50.47,-54.16,-54.37
2021/09/01 03:44:02+0000,-38.04,-44.50,-31.73,-50.27,-53.52,-54.57
2021/09/01 03:44:54+0000,-38.14,-44.08,-31.74,-50.10,-53.81,-54.18
2021/09/01 03:45:46+0000,-37.91,-47.96,-31.79,-49.64,-53.90,-54.85
2021/09/01 03:46:38+0000,-39.25,-46.91,-31.37,-50.82,-54.03,-54.54
2021/09/01 03:47:30+0000,-38.80,-45.24,-31.79,-50.56,-54.35,-54.54
2021/09/01 03:48:22+0000,-38.22,-48.33,-31.06,-50.65,-53.79,-54.26
2021/09/01 03:49:14+0000,-39.67,-45.72,-31.23,-50.41,-54.47,-54.87
2021/09/01 03:50:07+0000,-39.02,-49.30,-31.39,-49.89,-54.52,-54.40
2021/09/01 03:51:07+0000,-39.80,-47.26,-31.58,-50.86,-54.10,-54.46
2021/09/01 03:51:59+0000,-39.87,-44.82,-31.79,-50.34,-54.47,-54.26
2021/09/01 03:52:52+0000,-38.52,-45.73,-31.37,-50.45,-54.04,-54.82
2021/09/01 03:53:44+0000,-39.22,-47.92,-30.83,-49.63,-53.77,-54.51
2021/09/01 03:54:36+0000,-38.93,-47.44,-30.64,-49.72,-54.10,-54.05
2021/09/01 03:55:28+0000,-36.92,-43.67,-30.84,-50.10,-53.67,-54.39
2021/09/01 03:56:20+0000,-37.72,-45.07,-31.17,-50.19,-54.33,-54.60
2021/09/01 03:57:12+0000,-33.46,-46.12,-31.44,-50.54,-53.78,-54.64
2021/09/01 03:58:04+0000,-39.05,-44.76,-31.24,-50.19,-53.40,-54.89
2021/09/01 03:58:56+0000,-36.02,-45.85,-31.89,-50.15,-53.78,-54.95
2021/09/01 03:59:48+0000,-35.86,-45.02,-31.54,-50.28,-54.07,-54.56
2021/09/01 04:00:40+0000,-39.40,-43.15,-31.41,-50.56,-53.02,-54.45
2021/09/01 04:01:43+0000,-38.79,-42.83,-31.04,-50.69,-54.27,-54.57
2021/09/01 04:02:35+0000,-38.05,-45.83,-31.44,-49.50,-53.77,-54.88
2021/09/01 04:03:27+0000,-37.67,-44.11,-31.88,-49.69,-53.45,-54.62
2021/09/01 04:04:19+0000,-38.84,-44.28,-31.52,-50.73,-54.18,-54.69
2021/09/01 04:05:11+0000,-39.55,-44.50,-31.51,-50.11,-53.97,-54.84
2021/09/01 04:06:03+0000,-39.74,-44.05,-32.02,-50.83,-53.57,-54.84
2021/09/01 04:06:55+0000,-39.94,-42.99,-31.65,-50.36,-53.56,-54.73
2021/09/01 04:07:47+0000,-39.90,-44.74,-31.84,-50.34,-53.86,-54.76
2021/09/01 04:08:39+0000,-39.46,-42.69,-31.50,-50.02,-53.83,-54.67
2021/09/01 04:09:31+0000,-39.74,-45.06,-32.08,-50.76,-53.43,-54.52
2021/09/01 04:10:23+0000,-38.54,-46.98,-31.91,-50.39,-53.25,-54.32
2021/09/01 04:11:23+0000,-39.60,-45.67,-31.44,-50.33,-53.96,-54.82
2021/09/01 04:12:16+0000,-39.34,-44.48,-31.37,-50.70,-53.86,-54.68
2021/09/01 04:13:08+0000,-39.35,-44.36,-31.21,-50.89,-53.85,-54.49
2021/09/01 04:14:00+0000,-37.89,-46.46,-31.02,-50.20,-53.72,-55.31
2021/09/01 04:14:52+0000,-38.46,-47.36,-31.11,-50.16,-53.29,-54.58
2021/09/01 04:15:44+0000,-37.73,-45.04,-31.86,-49.94,-53.64,-54.77
2021/09/01 04:16:36+0000,-39.25,-48.20,-31.19,-50.46,-53.26,-54.68
2021/09/01 04:17:28+0000,-37.59,-46.28,-31.11,-50.51,-53.60,-54.72
2021/09/01 04:18:20+0000,-37.13,-45.95,-31.30,-50.77,-54.05,-54.34
2021/09/01 04:19:12+0000,-39.74,-45.70,-31.28,-50.70,-53.76,-55.12
2021/09/01 04:20:04+0000,-39.79,-41.47,-31.28,-50.31,-53.55,-54.23
2021/09/01 04:21:05+0000,-39.40,-46.79,-31.09,-51.23,-54.34,-55.56
2021/09/01 04:21:57+0000,-38.23,-43.41,-30.73,-50.39,-54.33,-55.65
2021/09/01 04:22:49+0000,-38.24,-44.38,-31.26,-50.62,-54.14,-54.88
2021/09/01 04:23:41+0000,-38.87,-44.38,-30.84,-49.88,-54.60,-55.54
2021/09/01 04:24:33+0000,-40.65,-45.74,-30.88,-49.98,-54.12,-54.89
2021/09/01 04:25:25+0000,-40.18,-45.84,-31.00,-49.93,-54.53,-55.01
2021/09/01 04:26:17+0000,-40.01,-44.20,-30.76,-49.64,-54.24,-55.12
2021/09/01 04:27:09+0000,-40.19,-43.91,-31.33,-49.93,-54.23,-54.86
2021/09/01 04:28:01+0000,-40.01,-46.90,-31.65,-50.33,-53.66,-55.02
2021/09/01 04:28:53+0000,-39.88,-46.67,-31.15,-50.45,-53.35,-55.00
2021/09/01 04:29:46+0000,-40.73,-46.25,-31.61,-50.87,-53.74,-53.66
2021/09/01 04:30:38+0000,-39.88,-47.00,-31.57,-50.53,-53.42,-54.50
2021/09/01 04:31:39+0000,-40.28,-44.88,-31.19,-50.20,-53.59,-54.28
2021/09/01 04:32:31+0000,-39.00,-46.11,-32.05,-50.67,-53.64,-54.57
2021/09/01 04:33:23+0000,-39.29,-48.10,-31.73,-51.34,-53.16,-54.12